Torna al catalogo

PRAETORIAN SDA_619

AttivoMilitarePO
NORAD 65582·PAYLOAD·🇺🇸 United States

Lanciato Sep 10, 2025 da Vandenberg Space Force Base

Loading…

Prossimi Passaggi (prossime 24 ore)

TLE

AggiornatoSource: Space-Track

Epoca: Sep 14, 2026, 12:40 UTC

1 65582U 25203T   26257.52837759  .00000167  00000-0  14045-3 0  9997
2 65582  81.3018 288.1248 0007309 314.2594  45.7962 13.83730766 51686

Traccia PRAETORIAN SDA_619 in tempo reale con AllMySat

Download on the App Store